SCOUT A DEB, 2702

Orbit data source: Space-Track

SCOUT A DEB, 2702 is space debris in LEO originally from a launch on Thu, 18 Aug 1966 UTC launched from the Air Force Western Test Range (AFWTR). Debris objects in space refer to the collection of defunct objects orbiting the Earth. Examples of debris include non-operational satellites, rocket bodies, and fragments generated from explosions, collisions, or faulty payload assembly.

Loading next visibility...
Identifier
2702, 1966-076D
Orbit
LEO
Last TLE update
23 hours ago
Origin
Manufacturer
Unknown
Mission
Spacecraft
Bus & Motor
Unknown
Mass
Unknown
Launch date (UTC)
1966-08-18 (59 years ago)
Launch vehicle
Unknown
Launch site
Air Force Western Test Range (AFWTR)
Object type
Payload
Rocket body
Debris
Shape & HBR
Unknown
Radar Cross Section
Small (<0.1 m²)

Expand to show TLE details & history

TLE from 23 hours ago
0 SCOUT A DEB
1  2702U 66076D   25198.32223995  .00000064  00000-0  97177-4 0  9991
2  2702  88.5728 305.3037 0089602 137.7973 280.4115 13.36483274852067
Epoch: 2025-07-17T07:44Z
TLE epoch observation values (Epoch: 2025-07-17T07:44:01.531Z)
Latitude
57.26151°
Longitude
-103.88293°
Altitude
1,120.523 km
Speed
7.303 km/s
True Right ascension
20h 30m 03s
True Declination
57° 06' 45"
Sunlit
Object was in daylight at epoch
Visualization orbit readout
Latitude
82.13577°
Longitude
-95.89214°
Altitude
1,095.022 km
Speed
7.332 km/s
Apparent Right ascension
07h 41m 22s
Apparent Declination
40° 09' 25"
Sunlit
Object is in daylight
Visualization observer readout
Local Sidereal Time
19:57:55
Azimuth
3.208° NNE
Elevation
-9.838°
Doppler factor
1
Orbital elements
Apogee altitude
1,186.663 km
Perigee altitude
1,052.303 km
Semi-major axis
7,497.62 km
Eccentricity
0.00896
Inclination
88.5728°
RAAN
305.3037°
Arg. of periapsis
137.7973°
True anomaly
279.39965°
Mean anomaly
280.4115°
Eccentric anomaly
279.90577°
Mean motion
3.34317 °/min
Orbital period
107.68 mins
BSTAR
0.000097177
Loading maneuver chart data...
Loading SW <> Apogee altitude chart data...
Loading historical data...
Loading historical data...
Loading historical data...
Loading historical data...
Loading historical data...
Loading historical data...
Loading historical data...
|